D3121 Weather Reports


Display with metric or nautical units.
time (UTC)temp
F
wind
direction
speed
MPH
gust
MPH
rain 1hr
in
rain 24hr
in
rain mn
in
humidity
%
barometer
mb
20260905060417 62 0.0 0.0 0.00 0.00 0.00 89 1010.2
20260905055417 62 0.0 1.0 0.00 0.00 0.00 88 1010.2
20260905054417 62 0.0 0.0 0.00 0.00 0.00 87 1010.1
20260905053437 62 0.0 1.0 0.00 0.00 0.00 87 1010.1
20260905052417 63 0.0 0.0 0.00 0.00 0.00 86 1010.3
20260905051417 63 0.0 0.0 0.00 0.00 0.00 86 1010.2
20260905050437 63 0 1.0 2.0 0.00 0.00 0.00 86 1010.5
20260905045418 63 270 1.0 2.0 0.00 0.00 0.00 85 1010.3
20260905044417 63 270 1.0 1.0 0.00 0.00 0.00 85 1010.4
20260905043457 63 0.0 0.0 0.00 0.00 0.00 84 1010.3
20260905042417 64 0.0 0.0 0.00 0.00 0.00 83 1010.4
20260905041417 64 0.0 0.0 0.00 0.00 0.00 83 1010.3
20260905040437 65 0.0 0.0 0.00 0.00 0.00 82 1010.3
20260905035416 65 0.0 0.0 0.00 0.00 0.00 81 1010.1
20260905034416 66 158 1.0 2.0 0.00 0.00 0.00 80 1010.5
20260905033416 66 113 4.0 6.0 0.00 0.00 0.00 80 1010.4
20260905032416 66 45 1.0 2.0 0.00 0.00 0.00 79 1010.4
20260905031416 66 68 1.0 2.0 0.00 0.00 0.00 78 1010.3
20260905030416 67 0.0 1.0 0.00 0.00 0.00 77 1010.1
20260905025416 67 0 1.0 2.0 0.00 0.00 0.00 77 1009.9
20260905024436 67 0 3.0 6.0 0.00 0.00 0.00 77 1010.1
20260905023416 67 338 2.0 5.0 0.00 0.00 0.00 77 1010.2
20260905022416 67 293 2.0 4.0 0.00 0.00 0.00 78 1010.3
20260905021416 67 270 2.0 3.0 0.00 0.00 0.00 77 1010.4
20260905020416 67 270 2.0 4.0 0.00 0.00 0.00 76 1010.4
20260905015416 67 0 3.0 7.0 0.00 0.00 0.00 76 1010.4
20260905014416 67 0 3.0 6.0 0.00 0.00 0.00 76 1010.5
20260905013416 67 23 1.0 2.0 0.00 0.00 0.00 75 1010.5
20260905012416 67 0 3.0 7.0 0.00 0.00 0.00 76 1010.6
20260905011436 67 0 3.0 5.0 0.00 0.00 0.00 75 1010.6
20260905010416 68 293 2.0 4.0 0.00 0.00 0.00 75 1010.5
20260905005416 68 0 4.0 7.0 0.00 0.00 0.00 74 1010.6
20260905004416 68 0 4.0 7.0 0.00 0.00 0.00 75 1010.7
20260905003436 67 270 2.0 5.0 0.00 0.00 0.00 77 1010.7
20260905002436 67 0 1.0 3.0 0.00 0.00 0.00 77 1010.5
20260905001416 67 0.0 1.0 0.00 0.00 0.00 78 1010.3
20260905000417 67 0 3.0 6.0 0.00 0.00 0.00 79 1010.2
20260904235416 67 0 1.0 3.0 0.00 0.00 0.00 78 1010.2
20260904234436 68 0.0 0.0 0.00 0.00 0.00 75 1010.2
20260904232416 69 0 1.0 2.0 0.00 0.00 0.00 73 1009.9
20260904231416 69 338 1.0 2.0 0.00 0.00 0.00 72 1009.8
20260904230416 70 338 2.0 4.0 0.00 0.00 0.00 71 1009.9
20260904225416 70 248 1.0 2.0 0.00 0.00 0.00 69 1009.9
20260904224416 70 338 1.0 1.0 0.00 0.00 0.00 69 1009.9
20260904223436 71 0 1.0 4.0 0.00 0.00 0.00 68 1009.9
20260904222416 71 0 3.0 5.0 0.00 0.00 0.00 68
20260904221416 71 315 2.0 4.0 0.00 0.00 0.00 66
20260904220416 72 270 3.0 7.0 0.00 0.00 0.00 65
20260904215416 72 315 4.0 7.0 0.00 0.00 0.00 66
20260904214416 73 23 5.0 7.0 0.00 0.00 0.00 64
20260904213416 73 0 5.0 9.0 0.00 0.00 0.00 63
20260904212416 73 23 3.0 5.0 0.00 0.00 0.00 62
20260904211416 73 248 4.0 9.0 0.00 0.00 0.00 61
20260904210416 73 0 7.0 10.0 0.00 0.00 0.00 60
20260904205416 74 23 7.0 10.0 0.00 0.00 0.00 59
20260904204416 74 23 5.0 10.0 0.00 0.00 0.00 59
20260904203416 74 0 3.0 7.0 0.00 0.00 0.00 60
20260904202416 74 0 3.0 5.0 0.00 0.00 0.00 59
20260904201416 74 23 10.0 14.0 0.00 0.00 0.00 55
20260904200456 75 0 10.0 15.0 0.00 0.00 0.00 59
20260904195416 75 0 5.0 10.0 0.00 0.00 0.00 57
20260904194416 75 0 4.0 7.0 0.00 0.00 0.00 58
20260904193416 74 0 8.0 10.0 0.00 0.00 0.00 59
20260904192416 75 270 4.0 9.0 0.00 0.00 0.00 57
20260904191456 75 293 4.0 8.0 0.00 0.00 0.00 57
20260904190416 75 0 6.0 10.0 0.00 0.00 0.00 58
20260904185415 74 0 4.0 7.0 0.00 0.00 0.00 60
20260904184416 75 0 8.0 14.0 0.00 0.00 0.00 60
20260904183416 74 0 5.0 9.0 0.00 0.00 0.00 63
20260904182416 74 23 6.0 12.0 0.00 0.00 0.00 62
20260904181416 74 0 10.0 13.0 0.00 0.00 0.00 61
20260904180416 74 0 5.0 9.0 0.00 0.00 0.00 63
20260904175416 73 0 11.0 13.0 0.00 0.00 0.00 62
20260904174435 73 0 7.0 13.0 0.00 0.00 0.00 65
20260904173416 73 23 7.0 9.0 0.00 0.00 0.00 65
20260904172416 73 0 8.0 12.0 0.00 0.00 0.00 63
20260904171416 74 338 9.0 15.0 0.00 0.00 0.00 65
20260904170416 74 0 4.0 7.0 0.00 0.00 0.00 64
20260904165436 74 23 7.0 12.0 0.00 0.00 0.00 63
20260904164436 74 0 8.0 16.0 0.00 0.00 0.00 64
20260904163416 74 0 8.0 13.0 0.00 0.00 0.00 65
20260904162416 73 23 7.0 10.0 0.00 0.00 0.00 68
20260904161416 73 248 1.0 3.0 0.00 0.00 0.00 70
20260904160416 73 315 3.0 6.0 0.00 0.00 0.00 69
20260904155436 73 0 5.0 11.0 0.00 0.00 0.00 69
20260904154416 72 0 5.0 7.0 0.00 0.00 0.00 69
20260904153416 72 0 6.0 13.0 0.00 0.00 0.00 69
20260904152415 73 68 2.0 4.0 0.00 0.00 0.00 68
20260904151416 73 23 3.0 4.0 0.00 0.00 0.00 70
20260904150415 72 338 2.0 5.0 0.00 0.00 0.00 71
20260904145415 72 0 4.0 6.0 0.00 0.00 0.00 71
20260904144416 71 0 5.0 10.0 0.00 0.00 0.00 72
20260904143416 71 338 3.0 8.0 0.00 0.00 0.00 74
20260904142416 71 0 7.0 11.0 0.00 0.00 0.00 75
20260904141436 71 23 5.0 8.0 0.00 0.00 0.00 78
20260904140416 71 293 1.0 2.0 0.00 0.00 0.00 79
20260904135416 70 23 4.0 6.0 0.00 0.00 0.00 80
20260904134436 70 0 7.0 9.0 0.00 0.00 0.00 80
20260904133416 69 315 1.0 2.0 0.00 0.00 0.00 87
20260904132416 68 23 1.0 2.0 0.00 0.00 0.00 88
20260904131416 68 135 2.0 4.0 0.00 0.00 0.00 88
20260904130416 67 338 1.0 2.0 0.00 0.00 0.00 90
20260904125416 67 203 2.0 3.0 0.00 0.00 0.00 90
20260904124416 67 0.0 1.0 0.00 0.00 0.00 90
20260904123416 67 0.0 0.0 0.00 0.00 0.00 91
20260904122416 66 0.0 1.0 0.00 0.00 0.00 93
20260904121416 65 0.0 0.0 0.00 0.00 0.00 95
20260904120416 64 0.0 0.0 0.00 0.00 0.00 95
20260904115416 64 23 2.0 2.0 0.00 0.00 0.00 94
20260904114436 64 0.0 0.0 0.00 0.00 0.00 95
20260904113415 63 0.0 0.0 0.00 0.00 0.00 97
20260904112416 62 0.0 0.0 0.00 0.00 0.00 97
20260904111416 61 0.0 0.0 0.00 0.00 0.00 97
20260904110436 61 0.0 0.0 0.00 0.00 0.00 97
20260904105416 60 0.0 0.0 0.00 0.00 0.00 98
20260904104415 59 0.0 0.0 0.00 0.00 0.00 97
20260904103416 59 0.0 0.0 0.00 0.00 0.00 97
20260904102415 0 0.0 0.0 0.00 0.00 0.00
20260904101415 0 0.0 0.0 0.00 0.00 0.00
20260904100415 0 0.0 0.0 0.00 0.00 0.00
20260904095415 0 0.0 0.0 0.00 0.00 0.00
20260904094415 0 0.0 0.0 0.00 0.00 0.00
20260904093416 0 0.0 0.0 0.00 0.00 0.00
20260904092416 0 0.0 0.0 0.00 0.00 0.00
20260904091436 0 0.0 0.0 0.00 0.00 0.00
20260904090415 0 0.0 0.0 0.00 0.00 0.00
20260904085436 0 0.0 0.0 0.00 0.00 0.00
20260904084415 0 0.0 0.0 0.00 0.00 0.00
20260904083435 0 0.0 0.0 0.00 0.00 0.00
20260904082415 0 0.0 0.0 0.00 0.00 0.00
20260904081416 0 0.0 0.0 0.00 0.00 0.00
20260904080436 0 0.0 0.0 0.00 0.00 0.00
20260904075415 0 0.0 0.0 0.00 0.00 0.00
20260904074416 0 0.0 0.0 0.00 0.00 0.00
20260904073415 0 0.0 0.0 0.00 0.00 0.00
20260904072415 0 0.0 0.0 0.00 0.00 0.00
20260904071436 0 0.0 0.0 0.00 0.00 0.00
20260904070416 0 0.0 0.0 0.00 0.00 0.00
20260904065416 0 0.0 0.0 0.00 0.00 0.00
20260904064415 0 0.0 0.0 0.00 0.00 0.00
20260904063416 0 0.0 0.0 0.00 0.00 0.00
20260904062415 0 0.0 0.0 0.00 0.00 0.00
20260904061415 0 0.0 0.0 0.00 0.01 0.00